Вернуться в каталог

STARLINK-5718

АктивенСвязьVLEO
NORAD 55620·PAYLOAD·🇺🇸 United States

Запущен Feb 12, 2023 с Cape Canaveral Space Force Station

Loading…

Ближайшие Пролёты (ближайшие 24 часа)

TLE

СвежийSource: CelesTrak SupGP

Эпоха: Sep 15, 2026, 01:56 UTC

1 55620C 23020BD  26258.08104167 -.00027246  00000+0 -98695-3 0  2585
2 55620  43.0040   4.6140 0001561 266.4704 129.4313 15.27588221    13

Отслеживайте STARLINK-5718 в реальном времени с AllMySat

Download on the App Store